Temperature
15 14 14 14 14 14 14 14 14 14 14 14 14 14 14 14 14 14 14 14 14 14 14 14 14 14 13 13 13 13 13 13 13 12 12 12 12 12 12 12 12 12 12
14 14 14 14 14 14 14 14 14 14 14 14 14 14 14 14 13 13 13 14 14 13 13 13 13 13 13 13 13 13 13 13 13 12 12 12 11 11 11 11 11 11 12
14 14 14 14 14 13 13 13 13 13 13 13 14 14 13 13 13 13 13 13 13 13 13 13 13 13 13 13 13 13 13 13 12 12 12 12 11 11 11 11 11 11 11
14 14 14 14 13 13 13 13 13 13 13 13 13 13 13 13 13 13 13 13 13 13 13 13 13 13 13 13 13 13 13 12 12 12 12 12 11 11 11 11 11 11 11
13 13 13 13 13 13 13 13 13 13 13 13 13 13 13 13 13 13 13 13 13 13 13 13 13 13 13 13 13 13 12 12 12 12 11 11 11 11 11 11 11 11 10
13 13 13 13 13 13 13 13 13 12 12 12 12 12 12 12 12 12 12 12 12 12 13 13 13 13 13 13 13 12 12 12 12 12 11 11 11 11 11 11 11 10 10
12 12 12 12 12 12 12 12 12 12 12 12 12 12 12 12 12 12 12 12 12 12 12 12 12 12 12 12 12 12 12 12 12 12 11 11 11 11 11 11 11 11 11
12 12 12 12 12 12 12 12 12 12 12 11 11 11 11 11 11 11 11 11 11 11 11 12 12 12 12 12 12 12 12 12 11 11 11 11 11 11 11 11 11 11 10
12 11 11 11 11 11 11 11 11 11 11 11 11 11 11 11 11 11 11 11 11 11 11 11 11 11 11 11 11 11 11 11 11 11 11 11 11 11 11 11 10 10 10
11 11 11 11 11 11 11 11 11 11 10 10 10 10 11 11 11 11 11 11 10 10 10 10 10 11 11 11 11 11 11 11 11 11 11 11 11 11 11 10 10 10 10
11 11 11 10 10 10 10 10 10 10 10 10 10 10 10 10 10 10 10 10 10 10 10 10 10 10 10 10 10 10 10 10 10 10 11 11 11 10 10 10 10 10 10
10 10 10 10 10 10 10 10 10 10 10 10 10 9 9 10 10 10 10 10 10 9 9 10 10 9 9 10 10 10 10 10 10 10 10 10 10 10 10 10 10 10 10
10 10 10 9 9 9 9 9 9 9 9 9 9 9 9 9 9 9 9 9 9 9 9 9 9 9 9 9 9 9 9 9 9 9 10 10 10 10 10 10 9 10 10
9 9 9 9 9 9 9 9 9 9 9 9 9 9 9 9 9 9 9 9 9 9 9 9 9 9 9 9 9 9 9 9 9 9 9 9 9 9 9 9 9 9 9
9 9 9 8 8 8 8 8 8 8 8 8 8 8 8 8 9 9 9 9 9 9 8 8 8 8 8 8 8 8 8 8 8 8 8 8 9 9 9 9 8 8 9
8 8 8 8 8 8 8 8 8 8 8 8 8 8 8 8 8 8 8 8 8 8 8 8 8 8 8 8 8 8 8 8 8 8 8 8 8 8 8 8 8 8 8
8 8 8 8 8 8 8 7 8 8 8 7 7 7 8 8 8 8 8 8 8 7 7 7 7 7 7 7 7 7 7 8 8 8 8 8 8 8 8 8 8 8 8
8 8 7 7 7 7 7 7 7 7 7 7 7 7 7 7 7 7 7 7 7 7 7 7 7 7 7 7 7 7 7 7 7 7 7 7 7 7 7 7 7 7 7
7 7 7 7 7 7 7 7 7 7 7 7 6 7 7 7 7 7 6 6 6 6 7 7 7 7 7 7 7 7 7 7 7 7 7 7 7 7 7 7 7 7 7
7 7 7 7 7 6 6 6 6 6 6 6 6 6 6 6 6 6 6 6 6 6 6 6 6 6 6 6 6 6 6 7 6 6 6 6 6 6 6 7 6 6 7
7 6 6 6 6 6 6 6 6 6 6 6 6 6 6 6 6 6 6 6 6 6 6 6 6 6 6 6 6 6 6 6 6 6 6 6 6 6 6 6 6 6 6
6 6 6 6 6 6 6 6 6 6 6 6 5 5 6 6 6 5 5 5 6 6 6 5 5 6 6 6 6 6 6 6 6 6 6 6 6 6 6 6 6 5 5
6 6 5 5 5 5 5 5 5 5 5 5 5 5 5 5 5 5 5 5 5 5 5 5 5 5 5 5 5 5 5 5 6 6 5 5 5 5 5 5 5 5 5
5 5 5 5 5 5 5 5 5 5 5 5 5 5 5 5 5 5 5 4 4 4 5 5 5 5 5 5 5 5 5 5 5 5 5 5 5 5 5 5 5 5 5
5 5 5 4 4 4 4 4 4 4 4 4 4 4 4 4 4 4 4 4 4 4 4 4 4 5 5 5 5 5 5 5 5 5 5 5 5 5 5 5 5 5 5
4 4 4 4 4 4 4 4 4 4 4 4 4 3 3 4 4 4 4 4 4 4 4 4 4 4 4 4 4 5 5 5 5 5 5 5 4 4 4 4 4 4 4
Wind_Speed
1 0 0 0 0 1 1 1 1 2 2 2 3 2 3 3 2 2 2 2 2 2 2 2 2 2 2 2 2 2 2 3 3 2 2 4 5 5 7 9 9 8 7
1 1 0 0 0 0 0 0 1 2 1 1 1 1 1 2 2 3 3 3 3 3 3 3 2 2 3 2 2 2 2 3 4 4 3 3 4 6 6 6 8 7 8
1 1 0 0 1 1 1 1 1 1 1 1 1 1 1 1 1 2 3 3 3 4 3 3 3 2 3 3 3 3 2 2 3 4 4 3 3 4 4 4 5 6 7
1 1 1 1 1 1 1 1 1 1 1 1 1 1 1 1 1 1 1 2 3 3 3 3 3 3 3 3 4 4 3 3 3 4 4 3 3 3 4 3 3 2 3
1 0 1 1 1 2 1 1 0 1 1 1 1 0 0 0 1 1 1 2 2 2 2 2 2 3 3 2 2 3 4 4 3 3 4 3 3 4 4 4 4 3 2
1 0 1 1 2 2 1 2 1 1 1 1 1 1 1 1 1 1 1 2 2 2 2 2 1 2 3 2 3 3 4 5 5 4 4 5 5 5 4 4 3 3 2
0 1 1 1 2 2 2 2 1 1 1 0 1 0 0 1 1 1 2 2 2 2 2 1 2 1 3 2 3 3 4 5 5 5 5 6 6 6 6 5 5 5 4
1 1 1 1 1 2 2 2 2 1 1 1 1 1 1 2 2 2 3 2 2 2 2 2 2 1 1 2 2 2 4 5 6 5 4 5 5 6 8 8 6 4 2
0 1 1 0 1 1 2 2 2 2 2 2 1 2 2 3 3 3 3 2 2 3 3 2 2 2 2 3 2 2 2 3 5 5 5 4 4 5 7 4 4 4 2
1 1 1 1 1 2 3 3 2 2 2 2 2 2 2 2 3 3 4 2 3 2 3 3 3 3 2 3 3 3 3 3 3 3 3 2 3 4 6 6 6 5 3
1 1 1 2 2 2 2 2 2 2 3 3 3 3 2 3 3 4 4 3 2 2 2 2 2 3 3 3 3 3 4 3 2 3 3 3 2 3 4 5 5 5 5
2 1 2 2 2 2 1 2 2 2 3 3 3 3 2 3 3 4 5 5 4 2 3 2 2 3 4 3 3 3 3 2 1 2 3 3 3 3 4 5 6 6 6
2 2 2 2 2 2 2 2 2 2 2 3 3 3 3 2 2 5 6 7 6 3 2 3 3 3 3 3 4 4 2 2 2 2 4 4 4 3 3 3 4 4 4
3 2 2 2 2 2 1 1 2 2 3 3 3 3 3 2 2 2 3 4 5 4 3 3 3 3 2 3 3 3 3 3 3 3 3 4 3 3 3 3 3 3 2
3 2 2 2 2 2 2 2 2 2 3 3 3 3 3 3 4 5 4 3 4 4 3 2 1 2 2 3 3 3 3 3 4 3 3 3 3 4 3 3 3 2 3
3 2 2 2 2 1 2 3 3 3 4 5 5 5 5 5 5 6 6 5 5 5 3 3 4 4 5 4 4 4 4 4 4 4 4 4 4 5 4 3 3 4 4
3 3 2 2 2 2 2 2 3 4 4 5 6 6 7 6 6 6 6 6 5 5 4 4 4 4 5 4 4 4 5 5 4 4 4 5 5 5 4 4 5 4 5
3 3 3 3 3 3 3 3 3 3 4 4 4 6 7 7 7 7 6 4 3 4 4 4 5 4 4 4 4 4 4 4 4 5 5 5 5 5 5 5 5 6 6
3 2 3 3 3 3 3 4 4 4 4 4 3 3 5 6 5 5 5 4 4 5 5 5 5 5 5 5 5 5 5 5 5 4 5 5 5 5 5 6 6 7 7
3 5 4 3 3 3 3 4 4 4 4 4 4 3 2 2 3 3 4 5 5 5 5 5 5 5 5 5 5 5 5 5 5 5 5 5 5 5 6 6 6 6 6
3 3 5 4 4 4 3 4 4 4 4 4 4 4 3 3 4 4 5 5 5 6 5 5 5 5 5 5 5 5 6 6 5 5 5 5 5 5 6 6 6 6 6
3 3 3 4 3 3 4 4 4 4 4 5 4 4 4 4 4 4 5 5 6 5 5 5 5 5 5 5 5 6 6 6 6 6 5 5 5 6 6 6 6 6 6
3 3 3 3 3 4 5 4 4 4 4 4 4 4 3 4 4 4 5 5 5 4 4 3 4 4 4 5 5 5 6 7 6 6 6 6 6 6 6 7 7 8 8
3 3 3 3 3 3 4 4 4 4 4 4 4 4 4 4 4 4 4 3 3 3 3 3 4 4 5 5 5 6 6 6 6 6 7 6 6 6 6 7 7 9 8
2 3 3 3 3 4 4 4 4 4 4 4 4 4 4 4 4 4 3 3 3 3 3 3 3 4 5 5 5 5 7 9 8 7 6 6 7 7 7 7 7 7 7
2 3 3 3 3 3 4 4 4 4 4 4 4 4 4 4 4 4 3 3 3 3 3 3 4 5 5 6 6 7 7 8 9 9 7 6 7 7 7 7 8 7 7
Wind_Direction
112 12 41 27 194 196 168 209 213 213 189 186 210 213 193 202 182 167 195 198 220 237 220 199 217 200 171 185 193 184 170 145 150 151 132 146 140 142 143 147 144 141 138
109 110 182 231 256 232 170 237 257 248 213 192 198 221 200 203 196 194 206 209 221 231 222 212 214 204 190 188 183 185 179 160 152 157 156 159 164 157 156 160 157 155 151
73 79 334 265 254 251 217 223 237 253 238 213 196 196 222 229 215 217 216 214 228 231 217 214 212 193 207 193 180 186 187 164 147 154 165 164 158 155 150 165 156 153 158
51 7 336 341 323 304 289 250 239 255 257 254 233 173 248 252 259 260 247 239 241 242 231 217 208 191 195 192 183 186 171 154 149 150 155 162 165 165 158 169 173 179 169
104 314 329 338 341 340 341 314 331 329 317 314 338 89 341 314 312 336 299 277 264 254 247 231 213 179 166 166 179 177 167 165 168 165 165 170 179 176 187 184 184 180 184
142 113 14 350 357 9 6 348 346 339 331 343 321 3 8 319 335 353 339 286 281 272 269 252 219 167 156 152 159 168 175 182 185 183 184 185 197 196 190 188 179 169 214
135 53 33 19 3 360 1 352 330 288 284 300 294 108 287 318 296 287 303 291 277 270 270 256 263 221 160 172 188 192 204 207 194 186 190 197 195 195 187 194 196 193 206
26 10 30 38 4 359 352 335 317 298 278 261 250 243 256 281 269 265 267 269 281 277 266 247 248 236 181 154 178 207 222 215 209 209 207 207 204 191 190 195 194 193 190
264 301 328 335 315 304 301 297 307 304 286 265 245 239 244 262 248 239 238 245 257 266 267 255 240 224 211 176 183 218 248 251 230 214 206 202 195 184 179 166 169 170 199
274 278 283 272 266 267 275 287 291 284 272 267 252 243 237 246 245 234 227 234 246 256 264 262 248 237 229 198 196 201 229 251 233 217 209 204 187 188 187 183 181 183 189
335 324 322 303 277 269 270 287 283 273 267 268 263 256 243 241 241 240 234 230 240 245 246 255 255 235 223 215 216 214 229 246 225 203 201 200 197 200 201 200 192 186 194
339 321 318 309 302 309 293 285 288 276 261 266 268 267 259 241 233 237 238 239 254 245 244 242 237 229 220 214 224 251 253 231 218 208 201 207 208 213 216 214 216 211 211
301 294 294 302 301 304 297 291 293 282 260 262 261 263 265 252 233 232 236 238 246 240 247 246 235 235 225 215 228 241 244 208 206 216 215 216 212 213 208 208 216 217 228
295 283 283 284 299 303 287 279 281 275 273 270 265 266 274 268 249 232 228 231 236 239 247 246 234 225 230 234 234 232 220 216 211 220 226 217 203 198 205 205 211 202 216
293 278 285 287 286 300 302 293 279 267 257 262 264 260 260 261 259 257 249 239 229 222 212 201 210 209 218 230 228 222 222 224 229 224 223 216 208 202 205 199 200 204 218
306 305 294 291 285 280 280 305 301 269 269 269 264 260 266 258 271 261 257 261 249 227 214 210 213 213 216 221 224 222 217 219 223 220 219 220 215 211 211 208 203 207 222
296 299 303 302 293 285 280 279 295 301 280 271 270 268 259 256 256 254 250 252 239 218 215 223 220 217 218 222 222 224 226 224 217 214 219 221 217 214 211 211 211 217 228
292 297 298 283 282 278 275 271 268 277 289 286 271 259 256 256 252 247 243 234 234 222 223 224 228 227 225 224 224 227 229 226 222 219 218 218 213 212 216 215 214 220 226
281 282 280 280 284 281 279 278 276 275 278 280 280 270 258 260 259 243 220 226 226 228 231 231 230 230 229 227 228 226 224 225 226 220 218 216 213 211 218 221 221 225 223
268 278 283 279 274 277 280 280 281 279 277 274 269 266 262 256 251 236 228 236 236 234 235 233 233 233 232 231 227 223 225 225 224 223 221 219 216 213 219 221 222 224 224
270 271 280 284 281 279 278 278 278 279 281 279 276 270 260 251 245 239 233 235 238 236 235 234 233 235 235 233 228 224 225 226 224 223 222 222 218 219 222 220 222 228 226
277 276 279 281 289 290 290 287 286 285 284 284 289 287 268 261 254 248 241 238 237 238 235 232 233 232 229 231 229 229 230 228 225 221 223 226 223 221 223 223 223 226 223
277 281 285 289 288 291 292 291 289 286 287 289 291 291 283 272 268 264 256 250 243 243 244 236 232 234 240 242 237 226 226 229 225 220 219 225 225 222 221 223 226 223 221
275 277 280 284 287 287 291 291 288 285 286 287 290 292 289 286 283 279 273 273 268 261 262 249 243 245 246 249 246 238 237 234 228 225 218 223 227 227 225 226 230 225 222
274 276 276 280 284 288 290 289 289 289 289 291 292 294 294 290 286 285 284 282 281 271 261 259 262 257 254 256 263 253 241 232 229 226 225 226 228 232 232 230 231 226 224
281 285 285 286 286 287 290 291 288 291 289 288 289 290 291 292 289 286 284 280 280 279 273 267 269 267 261 258 263 257 244 236 230 225 224 227 226 232 232 231 232 226 223
Height
1523 1524 1524 1525 1526 1527 1527 1528 1528 1529 1530 1531 1531 1532 1532 1533 1533 1534 1535 1535 1536 1537 1538 1538 1539 1540 1541 1542 1543 1544 1544 1545 1546 1547 1548 1549 1550 1551 1551 1551 1552 1552 1552
1521 1521 1522 1523 1523 1524 1524 1525 1526 1527 1528 1528 1529 1530 1530 1531 1531 1532 1533 1533 1534 1535 1536 1536 1537 1538 1539 1540 1541 1542 1542 1543 1544 1545 1546 1547 1548 1549 1550 1550 1550 1551 1551
1519 1520 1520 1520 1521 1521 1522 1522 1523 1524 1525 1526 1527 1527 1528 1528 1529 1530 1530 1531 1532 1532 1533 1534 1535 1536 1537 1537 1538 1539 1540 1541 1542 1543 1544 1545 1546 1547 1548 1549 1549 1549 1549
1517 1518 1518 1518 1518 1519 1519 1520 1521 1522 1522 1523 1524 1525 1525 1526 1526 1527 1527 1528 1529 1530 1531 1531 1532 1533 1534 1535 1536 1536 1538 1539 1540 1541 1542 1543 1544 1545 1546 1547 1547 1548 1548
1515 1515 1515 1516 1516 1516 1517 1517 1518 1519 1520 1520 1521 1522 1523 1523 1524 1524 1524 1525 1526 1527 1527 1528 1529 1530 1531 1532 1533 1534 1535 1536 1537 1538 1539 1540 1541 1542 1543 1544 1545 1545 1546
1513 1513 1513 1514 1514 1514 1514 1515 1515 1516 1517 1517 1518 1519 1519 1520 1520 1521 1521 1522 1523 1523 1524 1525 1526 1527 1528 1529 1530 1531 1532 1533 1534 1535 1536 1537 1538 1539 1541 1541 1542 1542 1543
1511 1511 1511 1511 1511 1511 1511 1512 1512 1513 1514 1514 1515 1515 1516 1516 1517 1517 1518 1518 1519 1520 1520 1521 1522 1524 1524 1525 1526 1527 1529 1530 1531 1532 1533 1533 1535 1536 1537 1538 1539 1539 1540
1509 1509 1509 1509 1509 1509 1509 1509 1509 1510 1510 1511 1511 1512 1512 1513 1513 1514 1514 1515 1515 1516 1517 1518 1519 1520 1521 1522 1523 1523 1525 1526 1527 1528 1530 1531 1532 1533 1534 1535 1536 1537 1538
1506 1506 1506 1506 1506 1506 1506 1506 1506 1506 1507 1507 1508 1508 1508 1509 1510 1510 1511 1511 1511 1512 1513 1514 1514 1515 1517 1518 1519 1519 1520 1521 1523 1524 1526 1527 1528 1529 1530 1531 1532 1533 1533
1503 1503 1503 1503 1503 1502 1502 1503 1503 1503 1503 1504 1504 1504 1504 1505 1506 1506 1507 1507 1507 1508 1509 1509 1510 1511 1512 1513 1514 1515 1515 1517 1518 1519 1520 1522 1523 1524 1526 1527 1528 1529 1529
1500 1500 1500 1500 1500 1499 1499 1499 1499 1499 1499 1499 1499 1500 1500 1500 1501 1502 1502 1503 1503 1504 1504 1505 1506 1507 1508 1509 1509 1510 1511 1513 1514 1514 1515 1517 1518 1519 1521 1522 1524 1525 1525
1497 1497 1497 1496 1496 1496 1496 1495 1495 1495 1495 1495 1495 1495 1495 1496 1496 1497 1498 1499 1499 1500 1500 1501 1501 1502 1503 1504 1505 1506 1507 1508 1509 1510 1511 1512 1513 1514 1516 1517 1519 1520 1521
1494 1494 1493 1493 1493 1493 1492 1492 1491 1491 1491 1490 1490 1490 1490 1491 1491 1492 1493 1494 1494 1495 1496 1497 1497 1498 1499 1499 1500 1501 1502 1503 1504 1505 1506 1507 1508 1510 1511 1513 1514 1515 1517
1491 1490 1490 1490 1489 1489 1489 1488 1488 1487 1487 1486 1486 1486 1486 1486 1486 1487 1488 1489 1490 1490 1491 1492 1493 1494 1494 1495 1496 1497 1497 1498 1499 1500 1501 1502 1504 1505 1506 1507 1508 1510 1511
1488 1487 1487 1486 1486 1485 1485 1485 1484 1484 1483 1483 1482 1482 1481 1481 1482 1483 1483 1484 1484 1485 1486 1487 1488 1488 1489 1489 1490 1491 1493 1494 1495 1496 1497 1497 1498 1499 1500 1502 1503 1504 1505
1484 1484 1483 1483 1482 1482 1481 1480 1480 1480 1479 1479 1478 1478 1477 1477 1478 1478 1479 1479 1480 1481 1482 1481 1482 1483 1484 1485 1486 1486 1487 1489 1490 1491 1492 1492 1493 1494 1495 1497 1498 1499 1499
1481 1481 1480 1479 1479 1478 1477 1476 1475 1475 1475 1474 1473 1473 1472 1472 1472 1472 1473 1474 1475 1476 1476 1476 1477 1478 1479 1480 1481 1482 1482 1484 1485 1486 1487 1487 1488 1489 1490 1491 1492 1493 1494
1478 1478 1477 1476 1475 1474 1473 1472 1471 1470 1469 1468 1468 1468 1468 1467 1467 1467 1468 1469 1469 1470 1470 1471 1472 1473 1474 1475 1476 1477 1478 1479 1480 1480 1481 1482 1483 1483 1484 1485 1486 1487 1488
1474 1474 1473 1473 1472 1471 1470 1469 1468 1467 1465 1464 1463 1463 1463 1463 1463 1463 1463 1463 1463 1464 1465 1465 1466 1468 1469 1470 1471 1471 1472 1473 1474 1475 1475 1476 1477 1478 1478 1479 1480 1481 1482
1470 1470 1469 1468 1467 1467 1466 1465 1464 1463 1462 1460 1459 1459 1459 1458 1457 1457 1458 1458 1458 1459 1459 1460 1461 1462 1463 1464 1465 1465 1466 1467 1468 1469 1469 1470 1471 1472 1472 1473 1474 1475 1476
1466 1466 1465 1464 1463 1462 1461 1461 1459 1459 1457 1456 1455 1455 1454 1453 1453 1452 1452 1453 1453 1453 1454 1455 1455 1456 1457 1458 1459 1459 1460 1460 1461 1462 1463 1464 1465 1465 1466 1467 1468 1469 1470
1462 1461 1461 1460 1459 1458 1457 1456 1455 1454 1453 1452 1451 1450 1449 1449 1448 1447 1447 1447 1447 1448 1448 1449 1449 1450 1450 1451 1452 1453 1453 1454 1455 1456 1457 1457 1458 1459 1460 1461 1462 1462 1463
1458 1457 1456 1455 1454 1453 1452 1451 1450 1449 1448 1447 1446 1445 1444 1443 1443 1442 1441 1441 1441 1442 1442 1443 1443 1443 1444 1444 1445 1446 1446 1447 1448 1449 1450 1451 1452 1452 1453 1454 1455 1455 1456
1453 1452 1451 1450 1450 1449 1447 1446 1445 1444 1443 1442 1441 1440 1439 1438 1437 1436 1436 1435 1435 1435 1436 1436 1437 1437 1437 1438 1438 1439 1440 1441 1442 1443 1444 1444 1445 1446 1446 1447 1448 1449 1450
1448 1447 1447 1446 1445 1444 1443 1442 1440 1440 1439 1438 1436 1435 1434 1433 1432 1431 1430 1430 1430 1429 1429 1430 1430 1431 1431 1431 1431 1432 1433 1434 1435 1436 1437 1437 1438 1439 1440 1440 1441 1442 1443
1444 1443 1442 1442 1440 1439 1438 1437 1436 1435 1434 1433 1432 1430 1429 1428 1427 1426 1425 1424 1424 1423 1423 1423 1423 1424 1424 1424 1424 1425 1425 1426 1427 1428 1429 1430 1431 1431 1432 1433 1434 1435 1436